Location: Stautrup
(56.1312°N, 10.1199°E)
Time: 23:52:01
(UTC+00:00)

Daily predictions for brighter satellites

Satellite Brightness Start Highest point End
(mag) Time Altitude Azimuth Time Altitude Azimuth Time Altitude Azimuth
STARLINK-52 4.2 20:57:56 10° SSW 21:00:31 22° SSE 21:03:06 10° E
Cosmos 1536 Rocket 4.4 20:56:46 10° SSE 21:00:41 34° E 21:04:40 10° NNE
STARLINK-1202 3.8 20:56:48 10° W 21:00:50 54° S 21:04:54 10° ESE
Cosmos 1544 Rocket 3.6 20:56:49 10° NNW 21:01:11 83° W 21:05:33 10° S
ATLAS CENTAUR R/B 0.3 21:00:05 10° WNW 21:01:54 71° NNE 21:04:01 10° E
CENTAUR R/B 3.8 20:54:29 10° NW 21:01:58 48° SW 21:10:11 10° SSE
STARLINK-1254 4.5 20:59:26 10° W 21:03:12 34° SSW 21:06:57 10° SE
SPOT 5 3.4 20:59:10 10° S 21:04:29 69° WSW 21:09:52 10° NNW
STARLINK-1203 3.8 21:01:31 10° W 21:05:35 53° S 21:09:39 10° ESE
Cosmos 1378 4.3 21:02:15 10° SW 21:05:50 45° WNW 21:09:26 10° N
BREEZE-M DEB 4.1 21:04:16 10° SSW 21:07:00 28° SE 21:13:21 10° E
Terra 1.9 21:03:32 10° SSE 21:08:18 79° WSW 21:13:06 10° NNW
USA 215 3.4 21:01:52 10° E 21:08:27 85° N 21:15:01 10° W
STARLINK-1246 3.8 21:06:45 10° W 21:10:47 52° S 21:14:49 10° ESE
ATLAS 3B R/B 2.9 21:04:08 10° NW 21:10:48 65° SW 21:17:41 10° SSE
Cosmos 1726 2.6 21:07:11 10° N 21:10:51 51° ENE 21:14:31 10° SSE
SAR-Lupe-2 4.3 21:07:47 10° N 21:11:21 58° WNW 21:14:53 10° SSW
STARLINK-1224 3.9 21:11:42 10° W 21:15:43 51° S 21:19:46 10° ESE
Cosmos 1655 Rocket 4.4 21:10:00 10° SSE 21:15:57 49° E 21:22:01 10° NNE
NOSS 2-2 (D) 3.9 21:14:36 10° WSW 21:18:20 66° NNW 21:22:56 10° NE
Cosmos 1470 3.2 21:14:51 10° NNW 21:18:40 60° W 21:22:29 10° S
STARLINK-1444 3.2 21:18:29 10° SW 21:20:15 22° SSE 21:22:02 10° ESE
Meteor 2-10 4.0 21:15:22 10° NNW 21:20:26 85° ENE 21:25:31 10° SSE
STARLINK-1225 3.9 21:16:41 10° W 21:20:42 50° SSW 21:24:44 10° ESE
STARLINK-1452 3.2 21:19:08 10° SW 21:20:52 22° SSE 21:22:39 10° ESE
STARLINK-1392 3.1 21:20:03 10° SW 21:21:45 22° SSE 21:23:27 10° ESE
Cosmos 1674 4.4 21:18:58 10° SE 21:21:45 20° E 21:24:35 10° NE
STARLINK-1399 3.1 21:20:05 10° SW 21:21:46 22° SSE 21:23:30 10° ESE
STARLINK-1393 3.1 21:20:07 10° SW 21:21:48 22° SSE 21:23:31 10° ESE
STARLINK-1394 3.1 21:20:08 10° SW 21:21:50 22° SSE 21:23:33 10° ESE
STARLINK-1397 3.1 21:20:10 10° SW 21:21:52 22° SSE 21:23:36 10° ESE
STARLINK-1395 3.1 21:20:13 10° SW 21:21:53 21° SSE 21:23:34 10° ESE
STARLINK-1396 3.1 21:20:11 10° SW 21:21:53 22° SSE 21:23:36 10° ESE
STARLINK-1414 3.1 21:20:12 10° SW 21:21:54 22° SSE 21:23:36 10° ESE
STARLINK-1408 3.1 21:20:15 10° SW 21:21:56 22° SSE 21:23:39 10° ESE
APEX 4.0 21:15:59 10° SSW 21:21:56 76° ESE 21:26:40 10° NE
STARLINK-1404 3.1 21:20:15 10° SW 21:21:57 22° SSE 21:23:41 10° ESE
STARLINK-1416 3.1 21:20:17 10° SW 21:21:58 22° SSE 21:23:41 10° ESE
STARLINK-1415 3.1 21:20:16 10° SW 21:21:59 22° SSE 21:23:44 10° ESE
STARLINK-1450 3.1 21:20:17 10° SW 21:22:00 22° SSE 21:23:44 10° ESE
STARLINK-1406 3.1 21:20:21 10° SW 21:22:02 22° SSE 21:23:44 10° ESE
STARLINK-1401 3.1 21:20:19 10° SW 21:22:02 22° SSE 21:23:46 10° ESE
STARLINK-1417 3.1 21:20:23 10° SW 21:22:05 22° SSE 21:23:49 10° ESE
STARLINK-1402 3.1 21:20:24 10° SW 21:22:06 22° SSE 21:23:51 10° ESE
STARLINK-1413 3.1 21:20:24 10° SW 21:22:06 22° SSE 21:23:51 10° ESE
STARLINK-1419 3.1 21:20:25 10° SW 21:22:06 22° SSE 21:23:51 10° ESE
STARLINK-1422 3.1 21:20:30 10° SW 21:22:12 22° SSE 21:23:56 10° ESE
STARLINK-1453 3.1 21:20:30 10° SW 21:22:12 22° SSE 21:23:58 10° ESE
STARLINK-1398 3.1 21:20:30 10° SW 21:22:14 22° SSE 21:24:00 10° ESE
STARLINK-1420 3.1 21:20:33 10° SW 21:22:16 22° SSE 21:24:00 10° ESE
STARLINK-1440 3.1 21:20:33 10° SW 21:22:16 22° SSE 21:24:01 10° ESE
STARLINK-1436 (VISORSAT) 3.1 21:20:33 10° SW 21:22:16 22° SSE 21:24:03 10° ESE
STARLINK-1460 3.1 21:20:35 10° SW 21:22:18 22° SSE 21:24:03 10° ESE
STARLINK-1410 3.1 21:20:40 10° SW 21:22:22 22° SSE 21:24:08 10° ESE
STARLINK-1423 3.1 21:20:41 10° SW 21:22:23 22° SSE 21:24:08 10° ESE
STARLINK-1421 3.1 21:20:42 10° SW 21:22:24 22° SSE 21:24:08 10° ESE
STARLINK-1400 3.1 21:20:41 10° SW 21:22:24 22° SSE 21:24:09 10° ESE
STARLINK-1454 3.1 21:20:41 10° SW 21:22:24 22° SSE 21:24:08 10° ESE
STARLINK-1458 3.1 21:20:44 10° SW 21:22:26 22° SSE 21:24:10 10° ESE
STARLINK-1445 3.1 21:20:45 10° SW 21:22:28 22° SSE 21:24:14 10° ESE
STARLINK-1446 3.1 21:20:48 10° SW 21:22:31 22° SSE 21:24:16 10° ESE
STARLINK-1407 3.1 21:20:48 10° SW 21:22:31 22° SSE 21:24:16 10° ESE
STARLINK-1405 3.1 21:20:52 10° SW 21:22:32 22° SSE 21:24:14 10° ESE
STARLINK-1370 3.1 21:20:51 10° SW 21:22:33 22° SSE 21:24:19 10° ESE
STARLINK-1456 3.1 21:20:52 10° SW 21:22:34 22° SSE 21:24:18 10° ESE
STARLINK-1457 3.1 21:20:52 10° SW 21:22:34 22° SSE 21:24:18 10° ESE
STARLINK-1451 3.1 21:20:52 10° SW 21:22:34 22° SSE 21:24:19 10° ESE
STARLINK-1439 3.1 21:20:55 10° SW 21:22:34 22° SSE 21:24:17 10° ESE
STARLINK-1437 3.1 21:20:52 10° SW 21:22:35 22° SSE 21:24:20 10° ESE
STARLINK-1447 3.1 21:20:52 10° SW 21:22:35 22° SSE 21:24:21 10° ESE
STARLINK-1409 3.1 21:20:52 10° SW 21:22:35 22° SSE 21:24:20 10° ESE
STARLINK-1455 3.1 21:20:52 10° SW 21:22:36 22° SSE 21:24:21 10° ESE
STARLINK-1441 3.1 21:20:54 10° SW 21:22:38 22° SSE 21:24:23 10° ESE
STARLINK-1443 3.1 21:20:56 10° SW 21:22:40 22° SSE 21:24:26 10° ESE
STARLINK-1442 3.1 21:20:59 10° SW 21:22:42 22° SSE 21:24:28 10° ESE
STARLINK-1403 3.1 21:20:59 10° SW 21:22:42 22° SSE 21:24:28 10° ESE
STARLINK-1351 3.1 21:20:58 10° SW 21:22:42 22° SSE 21:24:27 10° ESE
STARLINK-1434 3.1 21:20:59 10° SW 21:22:43 22° SSE 21:24:29 10° ESE
STARLINK-1418 3.1 21:20:59 10° SW 21:22:43 22° SSE 21:24:27 10° ESE
STARLINK-1448 3.1 21:21:01 10° SW 21:22:44 22° SSE 21:24:30 10° ESE
STARLINK-1433 3.1 21:21:02 10° SW 21:22:46 22° SSE 21:24:31 10° ESE
STARLINK-1449 3.1 21:21:04 10° SW 21:22:47 22° SSE 21:24:33 10° ESE
STARLINK-1438 3.1 21:21:07 10° SW 21:22:50 22° SSE 21:24:35 10° ESE
STARLINK-1411 3.1 21:21:14 10° SW 21:22:57 22° SSE 21:24:42 10° ESE
STARLINK-1412 3.1 21:21:14 10° SW 21:22:57 22° SSE 21:24:43 10° ESE
BREEZE-M DEB (TANK) 4.0 21:10:48 10° WSW 21:23:14 43° S 21:27:02 10° ESE
SeaSat 1 4.3 21:22:08 10° ENE 21:24:41 14° E 21:27:12 10° SE
STARLINK-1230 3.9 21:21:38 10° W 21:25:39 49° SSW 21:29:40 10° ESE
BREEZE-M DEB (TANK) 4.3 21:23:25 10° S 21:26:15 13° SSE 21:28:14 10° SE
FALCON 9 DEB 4.2 21:24:12 10° SSW 21:27:03 25° SSE 21:29:56 10° E
Cosmos 1606 Rocket 4.4 21:22:57 10° N 21:27:04 40° ENE 21:31:11 10° SE
BREEZE-M DEB (TANK) 3.7 21:24:13 10° WSW 21:27:46 31° S 21:31:06 10° SE
Cosmos 1340 Rocket 2.9 21:24:00 10° NNW 21:28:06 81° ENE 21:32:11 10° SSE
STARLINK-60 3.4 21:25:15 10° WSW 21:28:15 39° SSE 21:31:15 10° E
STARLINK-1243 3.9 21:26:38 10° W 21:30:38 48° SSW 21:34:38 10° ESE
Cosmos 1174 4.1 21:27:43 10° SSW 21:30:53 38° ESE 21:34:41 10° NE
COSMOS 2455 3.2 21:27:00 10° SSW 21:32:43 47° ESE 21:38:28 10° NE
COSMOS 2487 3.1 21:29:34 10° NW 21:32:53 45° WSW 21:36:13 10° S
Cosmos 1842 4.2 21:31:14 10° SSW 21:35:00 47° WNW 21:38:47 10° N
STARLINK-1236 4.0 21:31:35 10° W 21:35:34 46° SSW 21:39:34 10° ESE
Cosmos 1025 Rocket 3.0 21:31:19 10° S 21:35:36 76° E 21:39:57 10° NNE
Cosmos 1975 Rocket 4.2 21:34:14 10° SW 21:38:28 44° WNW 21:42:41 10° N
NOSS 3-4 (A) 3.5 21:33:04 10° SSW 21:38:57 60° SE 21:45:21 10° NE
NOSS 3-4 (C) 3.5 21:33:10 10° SSW 21:39:03 60° SE 21:45:27 10° NE
Aureole 3 2.9 21:36:34 10° N 21:39:40 59° ENE 21:42:17 12° SSE
MTI 3.6 21:36:59 10° NNE 21:40:09 82° ESE 21:43:17 10° SSW
Cosmos 2263 4.2 21:35:24 10° SSW 21:41:01 88° NW 21:46:42 10° NE
ALOS 2 3.7 21:37:35 10° SE 21:41:37 37° ENE 21:45:40 10° N
Cosmos 292 Rocket 4.2 21:38:25 10° SW 21:43:16 68° WNW 21:48:09 10° NNE
Cosmos 1953 2.5 21:39:29 10° NNW 21:43:28 71° W 21:47:21 10° S
ERBS 2.2 21:41:30 10° WNW 21:44:49 79° SSW 21:48:10 10° ESE
Cosmos 2297 Rocket 2.7 21:39:14 10° NNW 21:44:50 57° NE 21:50:25 10° SE
EXPRESS MD2 4.4 21:41:09 10° WSW 21:44:59 45° S 21:52:31 10° ESE
ATLAS 5 CENTAUR R/B 2.6 21:42:17 10° SSW 21:45:14 20° SE 21:47:05 10° E
STARLINK-1269 4.0 21:41:32 10° W 21:45:30 44° SSW 21:49:27 10° SE
RESURS DK-1 3.3 21:42:40 10° S 21:46:16 30° ESE 21:49:55 10° NE
Cosmos 1943 Rocket 3.1 21:42:27 10° WSW 21:47:55 53° NW 21:53:27 10° NNE
Cosmos 1271 Rocket 3.1 21:44:08 10° SSW 21:48:03 69° WNW 21:52:03 10° N
Cosmos 2219 3.5 21:43:01 10° NNW 21:48:43 68° NE 21:54:20 10° SE
Cosmos 1626 4.2 21:46:45 10° ESE 21:49:02 16° E 21:51:20 10° NE
Lacrosse 4 Rocket 2.7 21:44:54 10° NW 21:49:04 40° NE 21:53:06 10° ESE
Cosmos 2228 3.2 21:45:59 10° N 21:50:13 60° ENE 21:54:03 12° SSE
Cosmos 1992 Rocket 4.0 21:45:03 10° SSW 21:50:16 89° WNW 21:55:32 10° NNE
STARLINK-1200 4.1 21:46:31 10° W 21:50:27 43° SSW 21:54:23 10° SE
Spot 4 3.9 21:50:03 11° SSE 21:54:39 81° ENE 21:59:31 10° NNW
SL-4 R/B 2.6 21:50:46 10° WSW 21:55:22 47° S 22:00:01 10° E
STARLINK-1192 4.1 21:51:30 10° W 21:55:25 41° SSW 21:59:20 10° SE
Cosmos 921 Rocket 4.4 21:52:46 12° SSE 21:55:55 24° E 21:59:28 10° NE
Cosmos 1242 Rocket 4.0 21:54:43 10° SW 21:58:10 38° WNW 22:01:39 10° N
Cosmos 1707 3.1 21:56:05 10° SSW 21:59:57 65° WNW 22:03:49 10° N
STARLINK-1244 4.1 21:56:27 10° W 22:00:21 40° SSW 22:04:15 10° SE
STARLINK-1329 4.5 21:57:12 10° SSW 22:00:35 26° SSE 22:04:00 10° E
STARLINK-29 3.4 21:57:54 10° WSW 22:00:56 39° SSE 22:03:58 10° E
EO 1 Del DPAF 3.6 21:58:01 10° NNE 22:01:43 49° E 22:04:56 13° S
Timation 2 Rocket 4.2 21:58:01 10° NW 22:04:15 62° WSW 22:09:46 12° SSE
STARLINK-1362 4.4 22:01:37 10° SSW 22:05:04 28° SSE 22:08:32 10° E
SL-4 R/B 1.6 22:03:43 15° SE 22:05:13 34° ENE 22:07:16 10° N
STARLINK-1138 4.2 22:01:27 10° W 22:05:18 38° SSW 22:09:10 10° SE
Cosmos 1656 Rocket 3.8 22:01:17 10° SW 22:06:54 81° NW 22:12:28 10° NNE
ATLAS 2AS CENTAUR R/B 3.1 21:59:13 10° SW 22:07:16 83° SE 22:15:08 10° NE
STARLINK-1373 4.4 22:06:04 10° SSW 22:09:34 29° SSE 22:13:05 10° E
STARLINK-1143 4.2 22:06:26 10° W 22:10:16 37° SSW 22:14:04 10° SE
Cosmos 1726 Rocket 3.6 22:06:05 10° N 22:10:27 76° ENE 22:14:12 14° SSE
STARLINK-1390 4.3 22:10:31 10° SW 22:14:04 30° SSE 22:17:38 10° E
Helios 1A 3.9 22:11:00 10° SE 22:14:55 41° ENE 22:18:52 10° N
ATLAS CENTAUR R/B 1.4 22:10:48 10° SW 22:15:05 88° NW 22:19:06 10° NE
STARLINK-1241 4.3 22:11:26 10° W 22:15:14 36° SSW 22:18:52 11° SE
STARLINK-1320 3.8 22:13:42 10° SW 22:16:24 27° SSE 22:19:07 10° E
STARLINK-1322 3.8 22:14:03 10° SW 22:16:45 27° SSE 22:19:29 10° E
STARLINK-1324 3.8 22:14:21 10° SW 22:17:04 27° SSE 22:19:47 10° E
STARLINK-1294 3.8 22:14:40 10° SW 22:17:23 27° SSE 22:20:07 10° E
STARLINK-1261 3.8 22:15:02 10° SW 22:17:46 27° SSE 22:20:29 10° E
Cosmos 1892 Rocket 4.3 22:14:31 14° SSE 22:17:59 40° E 22:22:05 10° NNE
STARLINK-1325 3.8 22:15:23 10° SW 22:18:06 28° SSE 22:20:50 10° E
SJ 16-02 2.0 22:13:45 10° NNW 22:18:06 51° ENE 22:22:26 10° SE
STARLINK-1333 3.8 22:15:45 10° SW 22:18:29 28° SSE 22:21:13 10° E
STARLINK-1334 3.8 22:16:02 10° SW 22:18:45 28° SSE 22:21:29 10° E
STARLINK-1326 3.8 22:16:21 10° SW 22:19:04 28° SSE 22:21:49 10° E
Cosmos 2098 Rocket 4.5 22:12:13 11° S 22:19:23 72° E 22:26:34 10° NNE
STARLINK-1323 3.8 22:16:43 10° SW 22:19:27 28° SSE 22:22:12 10° E
STARLINK-1349 3.8 22:17:01 10° SW 22:19:45 28° SSE 22:22:29 10° E
STARLINK-1365 4.3 22:16:12 10° SW 22:19:52 32° SSE 22:23:32 10° E
STARLINK-1336 3.7 22:17:20 10° SW 22:20:05 28° SSE 22:22:49 10° E
STARLINK-1239 4.3 22:16:25 10° W 22:20:12 34° SSW 22:23:38 12° SE
STARLINK-1331 3.7 22:17:43 10° SW 22:20:28 28° SSE 22:23:12 10° E
STARLINK-1344 3.7 22:18:01 10° SW 22:20:46 28° SSE 22:23:30 10° E
Cosmos 2315 Rocket 4.1 22:14:37 10° NNW 22:20:50 78° W 22:26:32 13° S
STARLINK-1343 3.7 22:18:23 10° SW 22:21:08 28° SSE 22:23:53 10° E
STARLINK-1346 3.7 22:18:40 10° SW 22:21:26 29° SSE 22:24:13 10° E
STARLINK-1328 3.7 22:19:06 10° SW 22:21:51 28° SSE 22:24:36 10° E
STARLINK-1354 3.7 22:19:24 10° SW 22:22:08 29° SSE 22:24:54 10° E
STARLINK-1347 3.7 22:19:40 10° SW 22:22:25 29° SSE 22:25:11 10° E
Cosmos 2227 Rocket 2.3 22:17:00 10° NW 22:22:44 81° NE 22:28:23 10° SE
STARLINK-1357 3.7 22:20:05 10° SW 22:22:51 29° SSE 22:25:37 10° E
STARLINK-1335 3.7 22:20:23 10° SW 22:23:08 29° SSE 22:25:54 10° E
STARLINK-1327 3.7 22:20:44 10° SW 22:23:29 29° SSE 22:26:15 10° E
Cosmos 2369 Rocket 3.4 22:18:18 10° WSW 22:23:43 44° NW 22:29:07 10° NNE
STARLINK-1340 3.7 22:21:01 10° SW 22:23:47 29° SSE 22:26:33 10° E
STARLINK-1356 3.7 22:21:24 10° SW 22:24:10 29° SSE 22:26:56 10° E
STARLINK-1345 3.7 22:21:42 10° SW 22:24:28 29° SSE 22:27:14 10° E
STARLINK-1355 3.7 22:22:03 10° SW 22:24:49 29° SSE 22:27:36 10° E
STARLINK-1240 4.4 22:21:22 10° W 22:25:06 33° SSW 22:28:23 13° SE
STARLINK-1321 3.7 22:22:24 10° SW 22:25:10 29° SSE 22:27:57 10° E
Cosmos 1437 4.3 22:23:34 13° SE 22:25:22 21° E 22:27:43 10° NE
STARLINK-1358 3.7 22:22:46 10° SW 22:25:33 29° SSE 22:28:20 10° E
STARLINK-1332 3.7 22:23:03 10° SW 22:25:50 29° SSE 22:28:37 10° E
STARLINK-1348 3.7 22:23:23 10° SW 22:26:10 30° SSE 22:28:57 10° E
STARLINK-1330 3.7 22:23:43 10° SW 22:26:30 30° SSE 22:29:17 10° E
STARLINK-1363 3.7 22:24:03 10° SW 22:26:50 30° SSE 22:29:37 10° E
STARLINK-1337 3.7 22:24:25 10° SW 22:27:12 30° SSE 22:30:00 10° E
STARLINK-1342 3.7 22:24:44 10° SW 22:27:31 30° SSE 22:30:19 10° E
STARLINK-1364 3.7 22:25:04 10° SW 22:27:51 30° SSE 22:30:39 10° E
STARLINK-1376 3.6 22:25:24 10° SW 22:28:11 30° SSE 22:30:59 10° E
STARLINK-1360 3.6 22:25:45 10° SW 22:28:32 30° SSE 22:31:20 10° E
STARLINK-1361 3.6 22:26:05 10° SW 22:28:53 30° SSE 22:31:40 10° E
STARLINK-1367 3.6 22:26:20 10° SW 22:29:09 30° SSE 22:31:59 10° E
STARLINK-1366 3.6 22:26:43 10° SW 22:29:31 30° SSE 22:32:20 10° E
STARLINK-1216 4.4 22:26:22 10° W 22:30:04 32° SSW 22:33:11 13° SSE
STARLINK-1338 4.1 22:26:58 10° SW 22:30:35 34° SSE 22:34:13 10° E
Cosmos 2084 Rocket 3.8 22:27:34 10° NW 22:32:00 70° NNE 22:36:30 10° ESE
Cosmos 1908 3.9 22:29:46 10° NNW 22:33:28 47° W 22:36:36 14° SSW
Cosmos 1356 Rocket 3.9 22:29:54 10° N 22:34:04 54° ENE 22:37:47 13° SSE
STARLINK-52 3.2 22:33:05 10° WSW 22:36:12 45° S 22:39:17 10° E
STARLINK-1371 4.0 22:35:17 10° SW 22:38:57 36° SSE 22:42:37 10° E
Cosmos 2084 3.5 22:34:35 10° SW 22:39:00 64° SE 22:43:26 10° ENE
SL-14 R/B 3.8 22:36:22 15° SSE 22:39:13 44° E 22:42:54 10° NNE
STARLINK-1341 4.0 22:39:34 10° SW 22:43:16 37° SSE 22:46:59 10° E
Thor Agena Rocket 3.8 22:38:53 10° NNE 22:44:12 75° WNW 22:49:26 10° SSW
KORONAS-FOTON 4.0 22:42:06 13° SSW 22:45:33 72° WNW 22:49:27 10° N
Cosmos 1726 4.3 22:43:04 10° NW 22:45:45 19° W 22:48:26 10° SW
Cosmos 1300 2.7 22:42:24 10° NNW 22:46:15 88° E 22:49:12 16° SSE
Terra 4.1 22:44:10 10° WSW 22:46:52 15° W 22:49:33 10° NW
STARLINK-1374 4.0 22:43:48 10° SW 22:47:32 39° SSE 22:51:17 10° E
Meteor 2-10 Rocket 4.4 22:44:03 10° N 22:49:00 42° ENE 22:53:47 10° SE
Meteor 2-5 Rocket 3.8 22:46:11 13° S 22:51:14 82° ESE 22:56:58 10° NNE
USA 215 3.3 22:45:10 10° SE 22:51:42 67° SSW 22:58:14 10° WNW
STARLINK-1339 3.9 22:48:04 10° SW 22:51:49 40° SSE 22:55:34 10° E
STARLINK-1444 2.5 22:51:49 10° WSW 22:53:49 34° S 22:55:53 10° ESE
Cosmos 2266 Rocket 4.5 22:48:24 10° SSW 22:54:21 56° WNW 23:00:19 10° N
STARLINK-1452 2.5 22:52:28 10° WSW 22:54:26 34° S 22:56:30 10° ESE
Cosmos 2292 Rocket 4.1 22:52:02 10° SW 22:54:57 33° WNW 22:57:41 10° N
STARLINK-1392 2.5 22:53:19 10° WSW 22:55:15 33° S 22:57:12 10° ESE
STARLINK-1399 2.5 22:53:21 10° WSW 22:55:18 33° S 22:57:19 10° ESE
STARLINK-1393 2.5 22:53:23 10° WSW 22:55:20 33° S 22:57:20 10° ESE
STARLINK-1394 2.5 22:53:25 10° WSW 22:55:21 33° S 22:57:22 10° ESE
STARLINK-1395 2.5 22:53:29 10° WSW 22:55:24 33° S 22:57:08 12° ESE
STARLINK-1397 2.5 22:53:27 10° WSW 22:55:24 33° S 22:57:25 10° ESE
STARLINK-1396 2.5 22:53:28 10° WSW 22:55:25 33° S 22:57:26 10° ESE
STARLINK-1414 2.5 22:53:29 10° WSW 22:55:25 33° S 22:57:21 11° ESE
STARLINK-1408 2.5 22:53:32 10° WSW 22:55:28 33° S 22:57:23 11° ESE
STARLINK-1404 2.5 22:53:33 10° WSW 22:55:30 33° S 22:57:30 10° ESE
STARLINK-1416 2.5 22:53:34 10° WSW 22:55:30 33° S 22:57:28 10° ESE
STARLINK-1415 2.5 22:53:34 10° WSW 22:55:32 33° S 22:57:32 10° ESE
STARLINK-1450 2.5 22:53:36 10° WSW 22:55:33 33° S 22:57:34 10° ESE
STARLINK-1406 2.5 22:53:38 10° WSW 22:55:33 33° S 22:57:26 11° ESE
STARLINK-1401 2.5 22:53:37 10° WSW 22:55:34 33° S 22:57:36 10° ESE
STARLINK-1417 2.5 22:53:41 10° WSW 22:55:38 33° S 22:57:39 10° ESE
STARLINK-1402 2.5 22:53:42 10° WSW 22:55:39 33° S 22:57:40 10° ESE
STARLINK-1413 2.5 22:53:42 10° WSW 22:55:39 33° S 22:57:40 10° ESE
STARLINK-1419 2.5 22:53:43 10° WSW 22:55:40 33° S 22:57:40 10° ESE
STARLINK-1422 2.5 22:53:48 10° WSW 22:55:45 33° S 22:57:46 10° ESE
STARLINK-1453 2.5 22:53:49 10° WSW 22:55:46 33° S 22:57:48 10° ESE
STARLINK-1398 2.5 22:53:50 10° WSW 22:55:47 34° S 22:57:50 10° ESE
STARLINK-1420 2.5 22:53:51 10° WSW 22:55:49 33° S 22:57:50 10° ESE
STARLINK-1440 2.5 22:53:52 10° WSW 22:55:51 33° S 22:57:52 10° ESE
STARLINK-1436 (VISORSAT) 2.5 22:53:52 10° WSW 22:55:51 34° S 22:57:54 10° ESE
STARLINK-1460 2.5 22:53:54 10° WSW 22:55:52 33° S 22:57:53 10° ESE
STARLINK-1410 2.5 22:53:58 10° WSW 22:55:56 33° S 22:57:57 10° ESE
STARLINK-1423 2.5 22:53:59 10° WSW 22:55:57 33° S 22:57:57 10° ESE
STARLINK-1421 2.5 22:54:00 10° WSW 22:55:57 33° S 22:57:57 10° ESE
STARLINK-1400 2.5 22:53:59 10° WSW 22:55:57 33° S 22:57:58 10° ESE
STARLINK-1454 2.5 22:54:00 10° WSW 22:55:58 33° S 22:57:59 10° ESE
STARLINK-1458 2.5 22:54:03 10° WSW 22:56:00 33° S 22:58:01 10° ESE
STARLINK-1445 2.5 22:54:05 10° WSW 22:56:03 33° S 22:58:04 10° ESE
STARLINK-1407 2.5 22:54:07 10° WSW 22:56:05 33° S 22:58:07 10° ESE
STARLINK-1446 2.5 22:54:07 10° WSW 22:56:05 33° S 22:58:07 10° ESE
STARLINK-1405 2.5 22:54:10 10° WSW 22:56:06 33° S 22:57:51 12° ESE
STARLINK-1370 2.5 22:54:10 10° WSW 22:56:07 33° S 22:58:09 10° ESE
STARLINK-1377 3.9 22:52:22 10° SW 22:56:08 41° SSE 22:59:55 10° E
STARLINK-1456 2.5 22:54:11 10° WSW 22:56:08 33° S 22:58:09 10° ESE
STARLINK-1457 2.5 22:54:11 10° WSW 22:56:09 33° S 22:58:10 10° ESE
STARLINK-1451 2.5 22:54:12 10° WSW 22:56:09 33° S 22:58:10 10° ESE
STARLINK-1439 2.5 22:54:14 10° WSW 22:56:09 33° S 22:57:54 12° ESE
STARLINK-1409 2.5 22:54:12 10° WSW 22:56:09 33° S 22:58:10 10° ESE
STARLINK-1447 2.5 22:54:12 10° WSW 22:56:10 33° S 22:58:12 10° ESE
STARLINK-1455 2.5 22:54:13 10° WSW 22:56:10 33° S 22:58:12 10° ESE
STARLINK-1437 2.5 22:54:13 10° WSW 22:56:10 33° S 22:58:12 10° ESE
STARLINK-1441 2.5 22:54:14 10° WSW 22:56:12 33° S 22:58:14 10° ESE
STARLINK-1443 2.5 22:54:17 10° WSW 22:56:15 34° S 22:58:17 10° ESE
STARLINK-1351 2.5 22:54:19 10° WSW 22:56:17 33° S 22:58:19 10° ESE
STARLINK-1418 2.5 22:54:19 10° WSW 22:56:17 33° S 22:58:18 10° ESE
STARLINK-1403 2.5 22:54:19 10° WSW 22:56:17 34° S 22:58:19 10° ESE
STARLINK-1434 2.5 22:54:19 10° WSW 22:56:18 34° S 22:58:20 10° ESE
STARLINK-1442 2.5 22:54:20 10° WSW 22:56:18 33° S 22:58:20 10° ESE
STARLINK-1448 2.5 22:54:22 10° WSW 22:56:20 33° S 22:58:21 10° ESE
STARLINK-1433 2.5 22:54:23 10° WSW 22:56:21 33° S 22:58:22 10° ESE
STARLINK-1449 2.5 22:54:25 10° WSW 22:56:23 33° S 22:58:24 10° ESE
STARLINK-1438 2.5 22:54:28 10° WSW 22:56:25 33° S 22:58:26 10° ESE
STARLINK-1411 2.5 22:54:35 10° WSW 22:56:32 33° S 22:58:34 10° ESE
STARLINK-1412 2.5 22:54:35 10° WSW 22:56:33 33° S 22:58:34 10° ESE
Cosmos 1674 3.3 22:53:26 11° SSW 22:56:59 51° WNW 23:00:44 10° N
YAOGAN 11 4.1 22:54:28 14° SSE 22:58:08 78° ENE 23:02:28 10° NNW
ATLAS 3B R/B 4.3 22:55:47 10° WNW 23:00:24 20° WSW 23:05:07 10° SSW
STARLINK-1353 3.9 22:56:38 10° SW 23:00:27 42° SSE 23:04:15 10° E
Cosmos 1626 Rocket 4.4 22:57:33 14° SSE 23:00:53 40° E 23:05:00 10° NNE
Cosmos 2292 4.2 22:59:22 10° N 23:02:40 78° ENE 23:04:47 18° SSE
SeaSat 1 2.5 22:58:10 10° NE 23:03:06 64° ESE 23:07:35 12° SSW
FALCON 9 DEB 3.3 23:00:20 10° WSW 23:03:40 48° S 23:07:00 10° E
STARLINK-60 3.2 23:00:58 10° W 23:04:02 45° S 23:07:06 10° ESE
STARLINK-1375 3.8 23:00:57 10° SW 23:04:46 44° SSE 23:08:36 10° E
Cosmos 2058 Rocket 3.6 23:01:59 10° NNW 23:06:21 52° W 23:09:53 15° SSW
BREEZE M DEB (TANK) 4.0 23:06:32 10° SW 23:06:47 11° SW 23:06:47 11° SW
Uosat 12 SS-18 rocket 4.0 23:04:06 10° NW 23:08:26 75° SW 23:12:50 10° SE
STARLINK-1350 3.8 23:05:15 10° WSW 23:09:05 45° SSE 23:12:55 10° E
Helios 1B rocket 3.9 23:07:25 10° NE 23:10:59 27° E 23:14:04 12° SSE
STARLINK-1352 3.8 23:09:31 10° WSW 23:13:21 46° SSE 23:17:12 10° E
Cosmos 1980 Rocket 3.9 23:10:17 10° SE 23:14:08 19° E 23:18:02 10° ENE
STARLINK-1368 3.7 23:14:00 10° WSW 23:17:51 47° SSE 23:21:44 10° E
ALOS 2 3.5 23:14:35 14° SSW 23:17:58 37° W 23:22:05 10° NNW
COSMOS 2455 3.5 23:12:41 10° WSW 23:18:38 57° NW 23:24:37 10° NE
ERBS 3.4 23:18:00 10° W 23:20:49 25° SW 23:22:15 18° S
Cosmos 1455 2.8 23:18:13 10° N 23:21:54 51° ENE 23:25:11 12° SSE
Cosmos 1745 Rocket 4.2 23:16:47 14° S 23:22:01 64° E 23:28:06 10° NNE
Cosmos 1937 Rocket 3.5 23:16:50 10° NNW 23:22:08 82° WSW 23:27:02 12° SSE
STARLINK-1369 3.7 23:18:23 10° WSW 23:22:15 48° SSE 23:26:09 10° E
Cosmos 1812 Rocket 3.6 23:18:52 10° N 23:23:22 82° E 23:27:04 15° SSE
USA 229 DEB 4.1 23:16:45 10° NW 23:23:51 74° NNE 23:31:22 10° ESE
Cosmos 1626 2.4 23:20:51 15° SSW 23:23:51 64° WNW 23:27:34 10° N
USA 229 4.1 23:16:52 10° NW 23:23:57 74° NNE 23:31:27 10° ESE
RESURS DK-1 3.3 23:20:08 10° WSW 23:24:10 49° NW 23:28:13 10° NNE
NOSS 3-1 (C) 4.1 23:17:42 10° NW 23:24:41 78° NE 23:32:57 10° ESE
Cosmos 2263 Rocket 3.1 23:19:20 10° NNW 23:24:49 49° NE 23:30:13 10° ESE
STARLINK-1372 3.7 23:22:40 10° WSW 23:26:33 49° SSE 23:30:26 10° E
Alouette 2 Rocket 4.2 23:21:05 10° NNW 23:26:36 61° ENE 23:30:22 11° SSE
Lacrosse 4 Rocket 1.9 23:23:42 10° NW 23:27:52 46° WSW 23:31:03 15° S
Cosmos 2297 Rocket 3.0 23:23:34 10° NW 23:28:45 38° WSW 23:32:59 15° S
NOSS 3-4 (A) 4.2 23:23:55 10° WSW 23:29:59 58° NNW 23:36:40 10° ENE
NOSS 3-4 (C) 4.2 23:24:01 10° WSW 23:30:05 59° NNW 23:36:46 10° ENE
Cosmos 1898 Rocket 3.8 23:25:37 10° NW 23:30:51 57° WSW 23:35:14 14° S
STARLINK-1378 3.7 23:27:10 10° WSW 23:31:04 50° S 23:34:58 10° E
Meteor 1-24 Rocket 3.9 23:27:06 12° SSW 23:32:05 69° WNW 23:37:44 10° NNE
Cosmos 2219 4.3 23:27:38 10° NW 23:32:31 31° WSW 23:36:34 14° SSW
NOSS 3-1 (A) 4.3 23:25:49 10° NW 23:32:43 69° NNE 23:40:54 10° ESE
Cosmos 1656 3.8 23:27:54 14° SSW 23:32:46 64° ESE 23:38:17 10° NE
Cosmos 921 Rocket 3.6 23:29:36 10° SW 23:33:53 57° WNW 23:38:17 10° NNE
Cosmos 220 Rocket 4.4 23:29:38 10° SW 23:34:03 65° WNW 23:38:31 10° NNE
SL-4 R/B 2.6 23:30:06 10° W 23:34:44 46° SSW 23:39:19 10° ESE
Cosmos 372 Rocket 4.3 23:29:42 10° NNW 23:34:51 68° ENE 23:40:00 10° SE
STARLINK-1379 3.7 23:31:38 10° WSW 23:35:32 51° S 23:39:28 10° E
CZ-4C R/B 2.7 23:31:35 15° SSW 23:35:42 44° SE 23:41:33 10° NE
STARLINK-29 3.2 23:33:41 10° W 23:36:48 45° S 23:39:52 10° ESE
Cosmos 1602 Rocket 3.6 23:35:23 16° S 23:38:47 69° E 23:43:08 10° NNE
STARLINK-1329 3.7 23:35:22 10° WSW 23:39:18 52° S 23:43:14 10° E
PSLV R/B 4.1 23:36:02 10° NNE 23:40:24 50° E 23:43:52 15° S
Cosmos 990 Rocket 4.5 23:35:25 10° NW 23:40:28 47° WSW 23:44:36 15° S
Cosmos 2082 4.0 23:37:53 10° NW 23:43:23 52° WSW 23:48:10 13° S
ATLAS CENTAUR R/B 2.9 23:41:56 10° WSW 23:43:35 16° SSW 23:43:35 16° SSW
STARLINK-1362 3.7 23:39:51 10° WSW 23:43:48 52° S 23:47:45 10° E
Cosmos 2150 Rocket 4.3 23:41:45 10° NNW 23:46:56 66° ENE 23:52:03 10° SE
Cosmos 192 4.4 23:43:01 13° SSW 23:47:31 88° WNW 23:52:32 10° NNE
STARLINK-1373 3.6 23:44:23 10° WSW 23:48:20 53° S 23:52:17 10° E
EO 1 Delta rocket 4.3 23:44:08 10° N 23:49:40 67° WNW 23:53:51 13° SSW
Helios 1A 4.1 23:47:33 14° SSW 23:50:35 31° W 23:54:20 10° NNW
Meteor 2-1 Rocket 4.4 23:45:24 10° NNW 23:50:52 60° W 23:55:37 14° S
Cosmos 2181 Rocket 4.3 23:44:49 10° N 23:51:18 71° ENE 23:57:44 10° SSE
STARLINK-1320 3.1 23:48:50 10° WSW 23:51:52 47° S 23:54:53 10° ESE
STARLINK-1322 3.1 23:49:11 10° WSW 23:52:12 47° S 23:55:14 10° ESE
STARLINK-1324 3.1 23:49:30 10° WSW 23:52:32 47° S 23:55:33 10° ESE
STARLINK-1294 3.1 23:49:49 10° WSW 23:52:50 47° S 23:55:53 10° ESE
STARLINK-1390 3.6 23:48:55 10° WSW 23:52:52 54° S 23:56:50 10° E
STARLINK-1261 3.1 23:50:12 10° WSW 23:53:13 47° S 23:56:14 10° ESE
STARLINK-1325 3.1 23:50:33 10° WSW 23:53:34 47° S 23:56:36 10° ESE
STARLINK-1333 3.1 23:50:55 10° WSW 23:53:56 47° S 23:56:57 10° ESE
STARLINK-1334 3.1 23:51:12 10° WSW 23:54:13 47° S 23:57:15 10° ESE
ATLAS CENTAUR R/B 3.3 23:50:43 10° W 23:54:25 30° NNW 23:57:55 10° NE
STARLINK-1326 3.1 23:51:31 10° WSW 23:54:32 47° S 23:57:33 10° ESE
STARLINK-1323 3.1 23:51:54 10° WSW 23:54:55 47° S 23:57:57 10° ESE
STARLINK-1349 3.1 23:52:11 10° WSW 23:55:13 47° S 23:58:14 10° ESE
STARLINK-1336 3.1 23:52:31 10° WSW 23:55:33 47° S 23:58:34 10° ESE
STARLINK-1331 3.1 23:52:54 10° WSW 23:55:55 47° S 23:58:57 10° ESE
STARLINK-1344 3.1 23:53:12 10° WSW 23:56:13 47° S 23:59:15 10° ESE
STARLINK-1343 3.1 23:53:34 10° WSW 23:56:36 47° S 23:59:37 10° ESE
STARLINK-1346 3.1 23:53:51 10° WSW 23:56:54 47° S 23:59:57 10° ESE
